Weather in Ourense

Spain     42°20′41″N   7°51′55″W
temp.,
°C
wind,
m/s
gust,
m/s
humid.,
%
clouds,
%
prec.,
mm/h
press.,
hPa
HPBL,
m
21 april, wed
wed2123:00+8w009630 1.3 101510
02:00+7sse119647 1.3 101510
05:00+6sse119799 0.0 101410
08:00+6se1196100 0.0 101316
11:00+11s1280100 0.0 1012462
14:00+16s2455100 0.1 10101698
17:00+14sw4568100 0.8 10081118
20:00+10sse1592100 3.4 1009477
22 april, thu
thu2223:00+9se2794100 1.9 1011350
02:00+8ese2595100 3.6 1011179
05:00+8sse1294100 0.1 101047
08:00+9se119487 0.1 101230
11:00+13sw127565 0.1 1012658
14:00+14wsw236980 0.2 1013690
17:00+17w325938 0.4 10121422
20:00+14wnw1285100 1.3 101397
23 april, fri
fri2323:00+10ese119330 0.0 101510
02:00+8se229489 0.0 101423
05:00+8se2393100 0.0 101369
08:00+9se2491100 0.0 1013103
11:00+13sse51176100 0.0 1013846
14:00+17sse61052100 0.1 10121718
17:00+17s51057100 0.2 10101585
20:00+15sse3870100 0.4 1011358
24 april, sat
sat2423:00+12sse3986100 0.8 1012201
02:00+10sse2292100 1.1 101236
05:00+10se2596100 0.6 1012126
08:00+11se31191100 0.8 1012460
11:00+15sse41079100 0.1 1012844
14:00+19sse69536 0.2 10111574
17:00+21sse3647100 0.0 10091831
20:00+18se2472100 0.6 1009100
25 april, sun
sun2523:00+12se3687100 0.6 1011154
02:00+11ene0094100 3.9 101012
05:00+11ene1195100 0.8 100910
08:00+11se1196100 1.5 100812
11:00+11sse2695100 1.3 1008372
14:00+12se3885100 2.1 1008522
17:00+13se2587100 0.8 1007589
20:00+14s1384100 1.5 1007187